Weather History for KMRH - August, 2014

Change the Weather History Date:

Sunday, August 17, 2014

  Actual Average Record
Temperature  
Mean Temperature 82 °F -  
Max Temperature 87 °F 86 °F 93 °F (1984)
Min Temperature 77 °F 71 °F 55 °F (1979)
Cooling Degree Days 16    
Growing Degree Days 32 (Base 50)    
Moisture  
Dew Point 75 °F    
Average Humidity 80    
Maximum Humidity 90    
Minimum Humidity 65    
Precipitation  
Precipitation 0.00 in - - ()
Sea Level Pressure  
Sea Level Pressure 29.98 in    
Wind  
Wind Speed 8 mph (WSW)    
Max Wind Speed 13 mph    
Max Gust Speed -    
Visibility 9 miles    
Events      
Averages and records for this station are not official NWS values.
T = Trace of Precipitation, MM = Missing Value Source: NWS Daily Summary

Daily Weather History Graph

Daily Weather History Graph

Search for Another Location

Airport or City:

Trip Planner

Search our weather history database for the weather conditions in past years. The results will help you decide how hot, cold, wet, or windy it might be!

Date:

Astronomy

Aug. 17, 2014 Rise Set
Actual Time 6:28 AM EDT 7:52 PM EDT
Civil Twilight 6:01 AM EDT 8:18 PM EDT
Nautical Twilight 5:30 AM EDT 8:50 PM EDT
Astronomical Twilight 4:56 AM EDT 9:23 PM EDT
Moon No Moon Rise 1:53 PM EDT (8/17)
Length of Visible Light 14h 16m
Length of Day
13h 23m
Waning Gibbous, 48% of the Moon is Illuminated
Aug 17
Waning Gibbous
Aug 25
New
Sep 2
First Quarter
Sep 8
Full
Sep 15
Last Quarter

Hourly Weather History & Observations

Time (EDT) Temp. Heat Index Dew Point Humidity Pressure Visibility Wind Dir Wind Speed Gust Speed Precip Events Conditions
12:58 AM 81.0 °F 86.7 °F 75.0 °F 82% 30.01 in 10.0 mi SW 10.4 mph - N/A   Clear
1:58 AM 80.1 °F 85.4 °F 75.9 °F 87% 29.99 in 10.0 mi SW 9.2 mph - N/A   Clear
2:58 AM 79.0 °F - 71.1 °F 77% 29.99 in 10.0 mi SW 10.4 mph - N/A   Partly Cloudy
3:58 AM 79.0 °F - 73.0 °F 82% 29.98 in 10.0 mi WSW 4.6 mph - N/A   Mostly Cloudy
4:58 AM 78.1 °F - 73.9 °F 87% 29.98 in 9.0 mi WNW 4.6 mph - N/A   Clear
5:58 AM 77.0 °F - 73.9 °F 90% 29.99 in 9.0 mi West 3.5 mph - N/A   Clear
6:58 AM 77.0 °F - 73.9 °F 90% 29.99 in 6.0 mi NW 6.9 mph - N/A   Clear
7:58 AM 78.1 °F - 75.0 °F 90% 30.00 in 7.0 mi WNW 8.1 mph - N/A   Clear
8:58 AM 81.0 °F 86.2 °F 73.9 °F 79% 30.00 in 8.0 mi WNW 3.5 mph - N/A   Clear
9:58 AM 82.9 °F 89.4 °F 73.9 °F 74% 30.01 in 10.0 mi WSW 5.8 mph - N/A   Clear
10:58 AM 86.0 °F 93.0 °F 73.0 °F 65% 30.01 in 10.0 mi WNW 6.9 mph - N/A   Clear
11:58 AM 86.0 °F 96.0 °F 75.9 °F 72% 30.00 in 10.0 mi SW 5.8 mph - N/A   Clear
12:58 PM 86.0 °F 93.8 °F 73.9 °F 67% 29.99 in 10.0 mi SSW 9.2 mph - N/A   Clear
1:58 PM 84.9 °F 93.3 °F 75.0 °F 72% 29.98 in 10.0 mi SSW 11.5 mph - N/A   Clear
2:58 PM 86.0 °F 96.9 °F 77.0 °F 74% 29.96 in 10.0 mi South 12.7 mph - N/A   Clear
3:58 PM 86.0 °F 96.9 °F 77.0 °F 74% 29.95 in 9.0 mi SSW 12.7 mph - N/A   Clear
4:58 PM 84.9 °F 92.1 °F 73.9 °F 69% 29.95 in 10.0 mi SSW 12.7 mph - N/A   Clear
5:58 PM 82.9 °F 92.8 °F 78.1 °F 85% 29.94 in 6.0 mi SSW 11.5 mph - N/A   Haze
6:58 PM 84.0 °F 93.7 °F 77.0 °F 79% 29.94 in 7.0 mi SW 10.4 mph - N/A   Overcast
7:58 PM 82.0 °F 90.2 °F 77.0 °F 85% 29.95 in 6.0 mi WSW 8.1 mph - N/A   Haze
8:58 PM 82.0 °F 90.2 °F 77.0 °F 85% 29.95 in 7.0 mi SW 5.8 mph - N/A   Clear
9:58 PM 81.0 °F 87.9 °F 77.0 °F 88% 29.96 in 7.0 mi SSW 6.9 mph - N/A   Clear
10:58 PM 82.0 °F 91.0 °F 78.1 °F 88% 29.96 in 7.0 mi WSW 6.9 mph - N/A   Mostly Cloudy
11:58 PM 82.9 °F 91.8 °F 77.0 °F 82% 29.95 in 8.0 mi WSW 6.9 mph - N/A   Overcast